Regional Weather Roundup
Issued by NWS

Home | Current Version | Previous Version | Graphics & Text | Print | Product List | Glossary Off
Versions: 1 2 3 4 5 6 7 8 9 10 11 12 13 14 15 16 17 18 19 20 21 22 23 24 25 26 27 28 29 30 31 32 33 34 35 36 37 38 39 40 41 42 43 44 45 46 47 48 49 50

000
ASUS43 KDTX 061310
RWRMI
MICHIGAN HOURLY REGIONAL WEATHER ROUNDUP
NATIONAL WEATHER SERVICE DETROIT/PONTIAC MI
900 AM EDT FRI MAY 06 2016

NOTE: "FAIR" INDICATES FEW OR NO CLOUDS BELOW 12,000 FEET WITH NO
SIGNIFICANT WEATHER AND/OR OBSTRUCTION TO VISIBILITY.

MIZ047>049-052>055-059>063-066>070-074>076-081>083-061400-
SOUTHEAST LOWER MICHIGAN

CITY           SKY/WX    TMP DP  RH WIND       PRES   REMARKS
ADRIAN         SUNNY     53  43  68 N5        29.98R
ALMA           SUNNY     52  45  78 W7        29.97S
BAD AXE        SUNNY     50  46  85 CALM      29.97R
CARO           SUNNY     49  46  88 CALM      29.96S
DETROIT CITY   SUNNY     57  40  52 N7        29.96R
DETROIT        MOSUNNY   57  41  55 N7        29.97R
FLINT          SUNNY     54  45  71 W3        29.98R
GROSSE ILE     SUNNY     57  41  54 NE9       29.94S
HILLSDALE      SUNNY     50  41  71 NW6       29.98R
HOWELL         SUNNY     51  44  77 CALM      29.98R

CITY           SKY/WX    TMP DP  RH WIND       PRES   REMARKS
JACKSON        SUNNY     50  44  80 N5        29.98R
LAMBERTVILLE   SUNNY     57  42  57 NW5       29.97R
LANSING        SUNNY     52  44  74 CALM      29.98R
LAPEER         FAIR      49  42  75 CALM      29.97S
MASON          SUNNY     50  45  83 W3        29.98R
MONROE         SUNNY     56  43  62 N5        29.95R
MT. CLEMENS    SUNNY     57  42  57 N10       29.94R
PONTIAC        MOSUNNY   54  42  64 N6        29.96R
PORT HOPE        N/A     51  42  71 NW9       29.95R
PORT HURON     SUNNY     55  41  58 N6        29.96R
TRI CITIES     SUNNY     53  41  63 CALM      29.97R
MIDLAND        FAIR      51  42  73 CALM      29.96R
TROY           SUNNY     57  41  55 CALM      29.97R
SAGINAW HB     SUNNY     52  41  66 CALM      29.97R
$$
MIZ043>046-050>051-056>058-064>065-071>073-077>080-061400-
SOUTHWEST LOWER MICHIGAN

CITY           SKY/WX    TMP DP  RH WIND       PRES   REMARKS
BATTLE CREEK   SUNNY     50  38  63 NW3       29.99R
BENTON HARBOR  MOSUNNY   48  43  82 CALM      30.00S
BIG RAPIDS     SUNNY     45  41  85 CALM      29.96S
COLDWATER      SUNNY     49  40  73 NW5       29.99R
FREMONT        FAIR      47  40  76 CALM      29.97S
HOLLAND        MOSUNNY  N/A N/A N/A SW5       29.99S
GRAND RAPIDS   MOSUNNY   50  39  66 W3        29.99R
IONIA          FAIR      49  40  69 W3        29.98R
KALAMAZOO      SUNNY     50  37  61 CALM      30.00R
LUDINGTON      SUNNY     52  42  70 CALM      29.95S
MARSHALL       SUNNY     50  41  70 NW5       29.98S
MOUNT PLEASANT SUNNY     52  43  73 CALM      29.96R
MUSKEGON       MOSUNNY   50  41  71 SW3       29.98S
SOUTH HAVEN    MOSUNNY   47  44  90 CALM      29.99S
$$
MIZ016>042-061400-
NORTHERN LOWER MICHIGAN

CITY           SKY/WX    TMP DP  RH WIND       PRES   REMARKS
BEAVER ISLAND  SUNNY     54  38  53 S7        29.90F
BELLAIRE       SUNNY     48  40  75 CALM      29.95S
CADILLAC       SUNNY     50  39  65 SW5       29.95S
CHARLEVOIX     SUNNY     52  40  62 SE6       29.95F
FRANKFORT      SUNNY     54  42  64 CALM      29.93S
GRAYLING       SUNNY     50  39  65 CALM      29.96S
HARBOR SPRINGS SUNNY     50  36  57 SW3       29.93F
MANISTEE       SUNNY     45  37  76 SE3       29.96R
OSCODA         SUNNY     54  40  60 CALM      29.95S
ROGERS CITY    SUNNY     52  38  59 CALM      29.95R
$$
MIZ007>008-015-061400-
EASTERN UPPER MICHIGAN

CITY           SKY/WX    TMP DP  RH WIND       PRES   REMARKS
KINROSS          N/A     52  37  58 SW5       29.91S
MACKINAC ISLAN SUNNY     49  35  58 SW7       29.92S
NEWBERRY       SUNNY     51  39  65 S13G20    29.88S
MUNISING         N/A     55  40  56 S12       29.83S
$$
MIZ004>006-011>014-085-061400-
CENTRAL UPPER MICHIGAN

CITY           SKY/WX    TMP DP  RH WIND       PRES   REMARKS
MANISTIQUE     SUNNY     45  40  83 S9        29.88S
ESCANABA       SUNNY     54  43  66 S8        29.87
MENOMINEE      SUNNY     59  41  51 SE9       29.87F
SAWYER-GWINN   SUNNY     50  39  66 S8        29.85R
$$
MIZ001>003-009>011-084-061400-
WESTERN UPPER MICHIGAN

CITY           SKY/WX    TMP DP  RH WIND       PRES   REMARKS
COPPER HARBOR    N/A     58  39  49 SW9       29.76S
IRONWOOD         N/A     66  45  45 W8        29.78S
$$

ABBREVIATIONS USED IN REMARKS
   TC - TEMPERATURE IN CELSIUS
  WCI - WIND CHILL INDEX
   HX - HEAT INDEX
  VSB - VISIBILITY





USA.gov is the U.S. government's official web portal to all federal, state and local government web resources and services.